APRIZESAT 5

Last updated on Fri Dec 29 2023 00:03:29 GMT+0000 (Coordinated Universal Time)

1 37792U 11044E 23362.45107820 .00001841 00000+0 26141-3 0 9991 2 37792 98.2576 257.3416 0056780 20.7579 339.5918 14.77159537665612
UTC large
Height (km)
Speed (km/s)
/
Latitude / Longitude
Inclination (degrees)
Orbital Period (minutes)
Azimuth
Elevation
Range (km)
Doppler Factor

Next 0 passes for location: London (51.5072 / 0.1276)

Sorry there are no passes over London.